ASTRO-H (HITOMI) (41337 NORAD) Tracking and Keplerian Element Data

This shows tracking and keplerian element data for the satellite.

Feedback or suggestion? Click here.




ElementValue
Catalog41337
NameASTRO-H (HITOMI)
Epoch Orbit32423
Epoch Day16.06340555
Epoch Year2022
RAAN306.7121
Inclination31.0058
Eccentricity0.0012137
Argument of Perigee19.6405
Mean Anonmoly340.4696
Mean Motion14.99020428
Decay Rate8.21E-06
L11 41337U 16012A 22016.06340555 .00000821 00000+0 59282-4 0 9997
L22 41337 31.0058 306.7121 0012137 19.6405 340.4696 14.99020428324231

Live tracking and technical data element details for ASTRO-H (HITOMI) (NORAD 41337). ASTRO-H (HITOMI) can be tracked NOW for your location showing map with azimuth and elevation plus other details from your city location.

Track the satellite on the map from your city or location and see movement details for azimuth, elevation, latitude, longitude, range, height, and movement on the map or in text.







IsCatalogInMostPopularTable: catalog: 41337, numindb: 473
Update: records affected: 1



GetName: 41337 ASTRO-H (HITOMI)

Hit Count: updated at: Mon, 17 Jan 2022 01:12:32 GMT